Regional Weather Roundup
Issued by NWS

Home | Current Version | Previous Version | Graphics & Text | Print | Product List | Glossary On
Versions: 1 2 3 4 5 6 7 8 9 10 11 12 13 14 15 16 17 18 19 20 21 22 23 24 25 26 27 28 29 30 31 32 33 34 35 36 37 38 39 40 41 42 43 44 45 46 47 48 49 50
707
ASUS45 KBOI 171010
RWRID

IDAHO REGIONAL WEATHER ROUNDUP
NATIONAL WEATHER SERVICE BOISE ID
300 AM MST TUE JAN 17 2017

NOTE: "FAIR" INDICATES FEW OR NO CLOUDS BELOW 12000 FEET
WITH NO SIGNIFICANT WEATHER AND/OR OBSTRUCTIONS TO VISIBILITY

IDZ012-014-171100-
SOUTHWEST IDAHO


CITY           SKY/WX    TMP DP  RH WIND       PRES   REMARKS
BOISE          PTCLDY     1  -2  87 CALM      30.36F FOG
CALDWELL       PTCLDY    -5  -9  83 CALM      30.44S FOG
MOUNTAIN HOME  PTCLDY     0  -1  97 CALM      30.37F
$$

IDZ016-017-171100-
SOUTHCENTRAL IDAHO


CITY           SKY/WX    TMP DP  RH WIND       PRES   REMARKS
BURLEY         CLEAR      7   2  80 NE8       30.27S WCI  -6
JEROME         CLEAR      7   4  87 NE13      30.28F WCI  -9
TWIN FALLS     CLEAR      7   3  84 SE7       30.27F WCI  -5
$$

IDZ019>023-171100-
SOUTHEAST IDAHO


CITY           SKY/WX    TMP DP  RH WIND       PRES   REMARKS
IDAHO FALLS    CLOUDY    -5  -9  83 N8        30.29S WCI -20
POCATELLO      CLOUDY    -1  -4  87 N3        30.30S
REXBURG        CLOUDY    -7 -10  87 NE3       30.28R
$$

IDZ006-010-011-018-031-032-171100-
CENTRAL IDAHO MOUNTAINS


CITY           SKY/WX    TMP DP  RH WIND       PRES   REMARKS
MCCALL         CLEAR      0  -5  79 CALM      30.17F HAZE
HAILEY         PTCLDY     3   1  92 N5        30.23S WCI  -6
STANLEY          N/A     -9 -14  78 CALM      30.21F
SALMON         CLOUDY   -15 -18  84 CALM      30.40S
CHALLIS        PTCLDY   -17 -20  86 S5        30.29F WCI -30
$$

IDZ002-004-006-007-026-171100-
NORTHERN IDAHO


CITY           SKY/WX    TMP DP  RH WIND       PRES   REMARKS
LEWISTON       CLEAR     13  10  88 NE5       30.18F WCI   5
LOWELL           N/A     15  11  83 NW6       30.28F WCI   6
COEUR D`ALENE  CLOUDY    16  15  96 CALM      30.12F
MULLAN PASS    PTCLDY    25  13  60 SW7       29.99S WCI  17
$$




USA.gov is the U.S. government's official web portal to all federal, state and local government web resources and services.